Change the Weather History Date:

Thursday, April 24, 2014

  Actual Average Record
Temperature  
Mean Temperature 50 °F -  
Max Temperature 62 °F 61 °F 86 °F (2001)
Min Temperature 39 °F 42 °F 33 °F (2002)
Degree Days  
Heating Degree Days 14    
Moisture  
Dew Point 18 °F    
Average Humidity 30    
Maximum Humidity 53    
Minimum Humidity 15    
Precipitation  
Precipitation 0.00 in - - ()
Sea Level Pressure  
Sea Level Pressure 29.92 in    
Wind  
Wind Speed 14 mph (WNW)    
Max Wind Speed 28 mph    
Max Gust Speed 37 mph    
Visibility 10 miles    
Events      
Averages and records for this station are not official NWS values.
T = Trace of Precipitation, MM = Missing Value Source: NWS Daily Summary

Daily Weather History Graph

Daily Weather History Graph

Search for Another Location

Airport or City:

Trip Planner

Search our weather history database for the weather conditions in past years. The results will help you decide how hot, cold, wet, or windy it might be!

Date:

Astronomy

Apr. 24, 2014 Rise Set
Actual Time 6:05 AM EDT 7:44 PM EDT
Civil Twilight 5:36 AM EDT 8:13 PM EDT
Nautical Twilight 5:01 AM EDT 8:48 PM EDT
Astronomical Twilight 4:24 AM EDT 9:25 PM EDT
Moon 3:15 AM EDT (4/24) 2:56 PM EDT (4/24)
Length of Visible Light 14h 36m
Length of Day
13h 38m
Waning Crescent, 24% of the Moon is Illuminated
Apr 24
Waning Crescent
Apr 29
New
May 6
First Quarter
May 14
Full
May 21
Last Quarter

Hourly Weather History & Observations

Time (EDT) Temp. Windchill Dew Point Humidity Pressure Visibility Wind Dir Wind Speed Gust Speed Precip Events Conditions
12:15 AM 44.6 °F 37.8 °F 24.8 °F 46% 29.86 in 10.0 mi WNW 15.0 mph 25.3 mph N/A   Clear
12:35 AM 44.6 °F 38.8 °F 24.8 °F 46% 29.87 in 10.0 mi NW 11.5 mph 18.4 mph N/A   Clear
12:55 AM 42.8 °F 36.6 °F 24.8 °F 49% 29.87 in 10.0 mi WNW 11.5 mph - N/A   Clear
1:15 AM 42.8 °F 36.2 °F 24.8 °F 49% 29.87 in 10.0 mi WNW 12.7 mph - N/A   Clear
1:35 AM 42.8 °F 36.6 °F 24.8 °F 49% 29.87 in 10.0 mi NW 11.5 mph - N/A   Clear
1:55 AM 42.8 °F 37.5 °F 24.8 °F 49% 29.87 in 10.0 mi NW 9.2 mph - N/A   Clear
2:15 AM 42.8 °F 37.5 °F 24.8 °F 49% 29.87 in 10.0 mi NW 9.2 mph - N/A   Clear
2:35 AM 42.8 °F 36.6 °F 24.8 °F 49% 29.86 in 10.0 mi WNW 11.5 mph - N/A   Clear
2:55 AM 42.8 °F 38.0 °F 24.8 °F 49% 29.86 in 10.0 mi WNW 8.1 mph - N/A   Clear
3:15 AM 42.8 °F 37.5 °F 24.8 °F 49% 29.86 in 10.0 mi WNW 9.2 mph - N/A   Clear
3:35 AM 41.0 °F 35.2 °F 24.8 °F 53% 29.86 in 10.0 mi WNW 9.2 mph - N/A   Clear
3:55 AM 41.0 °F 34.7 °F 23.0 °F 49% 29.87 in 10.0 mi WNW 10.4 mph - N/A   Clear
4:15 AM 41.0 °F 34.7 °F 24.8 °F 53% 29.87 in 10.0 mi WNW 10.4 mph - N/A   Clear
4:35 AM 41.0 °F 34.3 °F 23.0 °F 49% 29.87 in 10.0 mi WNW 11.5 mph - N/A   Clear
4:55 AM 41.0 °F 34.7 °F 23.0 °F 49% 29.87 in 10.0 mi WNW 10.4 mph - N/A   Clear
5:15 AM 41.0 °F 33.9 °F 21.2 °F 45% 29.88 in 10.0 mi WNW 12.7 mph - N/A   Clear
5:35 AM 41.0 °F 33.9 °F 21.2 °F 45% 29.89 in 10.0 mi WNW 12.7 mph - N/A   Clear
5:55 AM 41.0 °F 34.7 °F 21.2 °F 45% 29.89 in 10.0 mi WNW 10.4 mph - N/A   Clear
6:15 AM 39.2 °F 33.0 °F 21.2 °F 49% 29.90 in 10.0 mi WNW 9.2 mph - N/A   Clear
6:35 AM 41.0 °F 35.8 °F 21.2 °F 45% 29.91 in 10.0 mi WNW 8.1 mph - N/A   Clear
6:55 AM 41.0 °F 36.4 °F 19.4 °F 42% 29.92 in 10.0 mi WNW 6.9 mph - N/A   Clear
7:15 AM 42.8 °F 36.6 °F 19.4 °F 39% 29.93 in 10.0 mi WNW 11.5 mph - N/A   Clear
7:35 AM 42.8 °F 35.8 °F 19.4 °F 39% 29.94 in 10.0 mi WNW 13.8 mph 19.6 mph N/A   Clear
7:55 AM 44.6 °F 37.8 °F 19.4 °F 37% 29.94 in 10.0 mi WNW 15.0 mph 20.7 mph N/A   Clear
8:15 AM 44.6 °F 38.1 °F 17.6 °F 34% 29.94 in 10.0 mi NW 13.8 mph 24.2 mph N/A   Clear
8:35 AM 44.6 °F 37.4 °F 17.6 °F 34% 29.95 in 10.0 mi WNW 16.1 mph 31.1 mph N/A   Clear
8:55 AM 46.4 °F 39.5 °F 17.6 °F 32% 29.95 in 10.0 mi NW 17.3 mph 29.9 mph N/A   Clear
9:15 AM 46.4 °F 40.1 °F 17.6 °F 32% 29.95 in 10.0 mi WNW 15.0 mph 29.9 mph N/A   Clear
9:35 AM 48.2 °F - 17.6 °F 30% 29.95 in 10.0 mi NW 20.7 mph 28.8 mph N/A   Clear
9:55 AM 48.2 °F - 17.6 °F 30% 29.95 in 10.0 mi NW 20.7 mph 33.4 mph N/A   Clear
10:15 AM 50.0 °F - 17.6 °F 28% 29.95 in 10.0 mi NW 24.2 mph 29.9 mph N/A   Clear
10:35 AM 51.8 °F - 17.6 °F 26% 29.95 in 10.0 mi WNW 21.9 mph 28.8 mph N/A   Clear
10:55 AM 51.8 °F - 17.6 °F 26% 29.95 in 10.0 mi WNW 18.4 mph 29.9 mph N/A   Clear
11:15 AM 53.6 °F - 17.6 °F 24% 29.95 in 10.0 mi NW 20.7 mph 33.4 mph N/A   Clear
11:35 AM 53.6 °F - 17.6 °F 24% 29.95 in 10.0 mi WNW 27.6 mph 35.7 mph N/A   Clear
11:55 AM 53.6 °F - 17.6 °F 24% 29.95 in 10.0 mi NW 25.3 mph 36.8 mph N/A   Clear
12:15 PM 55.4 °F - 17.6 °F 23% 29.95 in 10.0 mi WNW 23.0 mph 31.1 mph N/A   Clear
12:35 PM 55.4 °F - 17.6 °F 23% 29.94 in 10.0 mi WNW 20.7 mph 35.7 mph N/A   Clear
12:55 PM 57.2 °F - 17.6 °F 21% 29.94 in 10.0 mi WNW 19.6 mph 31.1 mph N/A   Clear
1:15 PM 57.2 °F - 17.6 °F 21% 29.92 in 10.0 mi WNW 25.3 mph 32.2 mph N/A   Clear
1:35 PM 57.2 °F - 17.6 °F 21% 29.92 in 10.0 mi NW 24.2 mph 32.2 mph N/A   Clear
1:55 PM 57.2 °F - 17.6 °F 21% 29.91 in 10.0 mi NW 27.6 mph 33.4 mph N/A   Clear
2:15 PM 59.0 °F - 17.6 °F 20% 29.91 in 10.0 mi WNW 20.7 mph 33.4 mph N/A   Clear
2:35 PM 60.8 °F - 17.6 °F 19% 29.90 in 10.0 mi West 19.6 mph 25.3 mph N/A   Clear
2:55 PM 60.8 °F - 17.6 °F 19% 29.90 in 10.0 mi WNW 16.1 mph 28.8 mph N/A   Clear
3:15 PM 60.8 °F - 17.6 °F 19% 29.90 in 10.0 mi NW 17.3 mph 32.2 mph N/A   Clear
3:35 PM 60.8 °F - 17.6 °F 19% 29.90 in 10.0 mi WNW 20.7 mph 31.1 mph N/A   Clear
3:55 PM 60.8 °F - 17.6 °F 19% 29.90 in 10.0 mi NW 23.0 mph 36.8 mph N/A   Clear
4:15 PM 62.6 °F - 17.6 °F 18% 29.90 in 10.0 mi WNW 25.3 mph 31.1 mph N/A   Clear
4:35 PM 62.6 °F - 17.6 °F 18% 29.89 in 10.0 mi NW 26.5 mph 32.2 mph N/A   Clear
4:55 PM 60.8 °F - 15.8 °F 17% 29.90 in 10.0 mi NW 19.6 mph 28.8 mph N/A   Clear
5:15 PM 60.8 °F - 15.8 °F 17% 29.90 in 10.0 mi WNW 20.7 mph 27.6 mph N/A   Clear
5:35 PM 60.8 °F - 15.8 °F 17% 29.90 in 10.0 mi WNW 20.7 mph 27.6 mph N/A   Clear
5:55 PM 60.8 °F - 15.8 °F 17% 29.91 in 10.0 mi NW 17.3 mph 33.4 mph N/A   Clear
6:15 PM 60.8 °F - 15.8 °F 17% 29.92 in 10.0 mi WNW 15.0 mph 24.2 mph N/A   Clear
6:35 PM 60.8 °F - 14.0 °F 16% 29.93 in 10.0 mi WNW 15.0 mph 20.7 mph N/A   Clear
6:55 PM 60.8 °F - 12.2 °F 15% 29.93 in 10.0 mi WNW 16.1 mph 21.9 mph N/A   Clear
7:15 PM 59.0 °F - 12.2 °F 16% 29.93 in 10.0 mi NW 15.0 mph - N/A   Clear
7:35 PM 57.2 °F - 12.2 °F 17% 29.94 in 10.0 mi WNW 15.0 mph 21.9 mph N/A   Clear
7:55 PM 57.2 °F - 12.2 °F 17% 29.96 in 10.0 mi NW 9.2 mph - N/A   Clear
8:15 PM 55.4 °F - 12.2 °F 18% 29.96 in 10.0 mi WNW 13.8 mph 18.4 mph N/A   Clear
8:35 PM 55.4 °F - 12.2 °F 18% 29.98 in 10.0 mi NW 12.7 mph - N/A   Clear
8:55 PM 55.4 °F - 12.2 °F 18% 29.99 in 10.0 mi WNW 10.4 mph - N/A   Clear
9:15 PM 55.4 °F - 12.2 °F 18% 29.99 in 10.0 mi NW 11.5 mph - N/A   Clear
9:35 PM 53.6 °F - 12.2 °F 19% 30.00 in 10.0 mi NNW 3.5 mph - N/A   Clear
9:55 PM 53.6 °F - 12.2 °F 19% 30.00 in 10.0 mi NW 11.5 mph - N/A   Clear
10:15 PM 51.8 °F - 14.0 °F 22% 30.00 in 10.0 mi NW 8.1 mph - N/A   Clear
10:35 PM 51.8 °F - 14.0 °F 22% 30.00 in 10.0 mi NW 12.7 mph - N/A   Clear
10:55 PM 50.0 °F - 15.8 °F 26% 30.00 in 10.0 mi NW 5.8 mph - N/A   Clear
11:15 PM 50.0 °F - 15.8 °F 26% 30.01 in 10.0 mi NW 8.1 mph - N/A   Clear
11:35 PM 50.0 °F - 15.8 °F 26% 30.01 in 10.0 mi NW 10.4 mph - N/A   Clear
11:55 PM 50.0 °F - 15.8 °F 26% 30.02 in 10.0 mi NNW 9.2 mph - N/A   Clear